Location: Central Coast NSW, Australia
(33.2407°S, 151.4316°E)
Time: 08:55:23
(UTC+10:00)

Hubble Space Telescope - Pass Details

Date: 03 April 2019
Orbit: 537 x 540 km, 28.5° (Epoch: 22 April)

Event Time Altitude Azimuth Distance (km) Brightness Sun altitude
Exits shadow 04:49:37 22° 58° (ENE) 1,200 2.9 -29.4°
Drops below altitude 10° 04:51:29 10° 76° (ENE) 1,801 4.2 -29.0°
Sets 04:53:54 0° 85° (E) 2,693 5.4 -28.5°
